Regional Weather Roundup
Issued by NWS

Home | Current Version | Previous Version | Graphics & Text | Print | Product List | Glossary On
Versions: 1 2 3 4 5 6 7 8 9 10 11 12 13 14 15 16 17 18 19 20 21 22 23 24 25 26 27 28 29 30 31 32 33 34 35 36 37 38 39 40 41 42 43 44 45 46 47 48 49 50
000
ASUS43 KBIS 060220
RWRND

NORTH DAKOTA REGIONAL WEATHER ROUNDUP
NATIONAL WEATHER SERVICE BISMARCK ND
900 PM CDT TUE MAY 05 2015

NOTE: "FAIR" INDICATES FEW OR NO CLOUDS BELOW 12,000 FEET WITH NO
SIGNIFICANT WEATHER AND/OR OBSTRUCTIONS TO VISIBILITY.


NDZ001>003-009>011-017-060300-
NORTHWEST NORTH DAKOTA

CITY           SKY/WX    TMP DP  RH WIND       PRES   REMARKS
WILLISTON      CLEAR     71  49  45 SE15G25   29.76R
MINOT          PTCLDY    69  34  27 SE8       29.82R
MINOT AFB      PTCLDY    69  38  31 S10       29.80S
$$

NDZ018>021-031>035-040>046-060300-
SOUTHWEST NORTH DAKOTA

CITY           SKY/WX    TMP DP  RH WIND       PRES   REMARKS
BISMARCK       PTCLDY    70  47  43 S13       29.85R
DICKINSON      PTCLDY    63  49  60 SE18      29.79S
GARRISON         N/A     66  42  41 SE9       29.82S
HETTINGER ARPT CLOUDY    63  51  65 SE15G23   29.82S
$$

NDZ004>008-012>016-024-026-027-054-060300-
NORTHEAST NORTH DAKOTA

CITY           SKY/WX    TMP DP  RH WIND       PRES   REMARKS
GRAND FORKS    PTCLDY    71  47  42 S13       29.94R
GRND FRKS AFB  PTCLDY    72  48  43 S17       29.94R
DEVILS LAKE    PTCLDY    63  37  39 SE6       29.90S
$$

NDZ022-023-025-028>030-036>039-047>053-060300-
SOUTHEAST NORTH DAKOTA

CITY           SKY/WX    TMP DP  RH WIND       PRES   REMARKS
FARGO          PTCLDY    70  53  54 SE21G30   29.97R
JAMESTOWN      MOCLDY    70  51  51 SE17      29.90S
$$



USA.gov is the U.S. government's official web portal to all federal, state and local government web resources and services.